7 * 24
多渠道服务支持
COSMOS 2110(又名格洛纳斯-748),是苏联解体前独联体CIS于1990年12月8日发射的第一代GLONASS全球导航卫星。它运行在中地球轨道,轨道倾角64.8度,轨道周期约675.7分钟,设计寿命约为5年,由俄罗斯列舍特涅夫卫星信息系统研制并运营。 该卫星主要服务于军事和民用领域,可提供全球高精度定位导航服务,与GPS、北斗等系统兼容,服役期间为俄罗斯及全球用户提供了关键导航支持,现已完成服役任务退役。
俄罗斯(独联体)
(CIS)
| 数据来源 | 国际轨道数据 |
| 星历时间: | 2026-09-10T19:02:59+0800 1天前 查看轨道信息 |
| 半长轴: | 25508.081km |
| 偏心率: | 0.0043004 |
| 轨道倾角: | 64.993° |
| 近地点辐角 | 200.422° |
| 升交点赤经 | 68.648° |
| 平近点角 | 336.724° |
| 近地点: | 19020.249km |
| 远地点: | 19239.639km |
| 周期: | 675.735分钟 |
| 每日圈数: | 2.131013 |